Regional Weather Roundup
Issued by NWS Sterling, VA

Home | Current Version | Previous Version | Text Only | Print | Product List | Glossary Off
Versions: 1 2 3 4 5 6 7 8 9 10 11 12 13 14 15 16 17 18 19 20 21 22 23 24 25 26 27 28 29 30 31 32 33 34 35 36 37 38 39 40 41 42 43 44 45 46 47 48 49 50

255
ASUS41 KLWX 201011
RWRLWX

REGIONAL WEATHER ROUNDUP
NATIONAL WEATHER SERVICE BALTIMORE MD/WASHINGTON DC
600 AM EDT FRI APR 20 2018

Note: "FAIR" indicates few or no clouds below 12,000 feet
with no significant weather and/or obstructions to visibility.
 TC=TEMPERATURE CELSIUS

 * =Non NWS site. Station does not report precipitation (e.g. rain,
    snow, etc.), thunder, or fog.

DCZ001-MDZ009-015-VAZ040>042-051-053>054-201100-
WASHINGTON METRO

CITY           SKY/WX    TMP DP  RH WIND       PRES   REMARKS
WASHINGTON NAT FAIR      39  22  50 W8        30.27R WCI  33
DULLES         FAIR      35  23  61 W3        30.26R
ANDREWS AFB    FAIR      38  22  52 NW9       30.24R WCI  31
FT BELVOIR     FAIR      37  23  57 NW7       30.27R WCI  31
QUANTICO       FAIR      38  24  57 NW8       30.29R WCI  32
COLLEGE PARK*  FAIR      37  21  53 W5        30.26R WCI  33
LEESBURG*      FAIR      36  27  69 NW7       30.27R WCI  30
MANASSAS*      FAIR      36  22  56 NW6       30.28R WCI  31
GAITHERSBURG*  FAIR      32  22  66 W8        30.25R WCI  25

$$

MDZ006>007-011-014-201100-
BALTIMORE METRO

CITY           SKY/WX    TMP DP  RH WIND       PRES   REMARKS
BWI AIRPORT    FAIR      34  24  67 W9        30.24R WCI  27
MD SCIENCE CTR   N/A     39  22  50 MISG      30.24R
MARTIN STATE   PTCLDY    37  25  60 W6        30.25R WCI  33
ANNAPOLIS      FAIR      40  25  55 W8        30.24R WCI  34
FORT MEADE*    FAIR      32  27  80 W5        30.27R WCI  27

$$

MDZ012-015-019>023-201100-
MARYLAND EASTERN SHORE

CITY           SKY/WX    TMP DP  RH WIND       PRES   REMARKS
OCEAN CITY     FAIR      37  24  59 NW10      30.19R WCI  30
SALISBURY      FAIR      38  25  59 NW8       30.21R WCI  32
BAY BRIDGE AP* FAIR      39  25  56 NW17G25   30.24R WCI  30
CAMBRIDGE*       N/A    N/A N/A N/A MISG        N/A
EASTON*        PTCLDY    39  23  52 NW12G22   30.26R WCI  32

$$

MDZ017>025-201100-
SOUTHERN MARYLAND

CITY           SKY/WX    TMP DP  RH WIND       PRES   REMARKS
PATUXENT RIVER FAIR      42  24  49 NW21G28   30.25R WCI  33
ST INIGOES     FAIR      40  24  53 NW8       30.25R WCI  34
LEONARDTOWN*   FAIR      37  23  56 NW7       30.26R WCI  32

$$

MDZ003>005-201100-
NORTH CENTRAL MARYLAND

CITY           SKY/WX    TMP DP  RH WIND       PRES   REMARKS
FREDERICK*     FAIR      34  21  60 W9        30.28R WCI  26
HAGERSTOWN APT FAIR      34  21  59 W7        30.24R WCI  28
WESTMINSTER*   FAIR      34  25  69 W10       30.21R WCI  26

$$

MDZ501>502-201100-
WESTERN MARYLAND

CITY           SKY/WX    TMP DP  RH WIND       PRES   REMARKS
OAKLAND*       FAIR      23  18  80 NW6       30.20R WCI  16
CUMBERLAND*    FAIR      32  19  59 CALM      30.32R

$$

VAZ025>031-201100-
SHENANDOAH VALLEY

CITY           SKY/WX    TMP DP  RH WIND       PRES   REMARKS
WINCHESTER*    FAIR      32  21  64 CALM      30.28R
FRONT ROYAL*   FAIR      34  19  55 CALM      30.27R
LURAY*         FAIR      37  19  48 N12G20    30.27R WCI  30
NEW MARKET*    FAIR      34  17  49 CALM      30.29R
STAUNTON*      FAIR      35  17  47 N13       30.29R WCI  26
WAYNESBORO*    FAIR      36  18  47 N6        30.26R WCI  32

$$

WVZ021-048>050-054>055-201100-
EASTERN WEST VIRGINIA PANHANDLE

CITY           SKY/WX    TMP DP  RH WIND       PRES   REMARKS
MARTINSBURG    FAIR      35  20  54 NW12      30.25R WCI  27
PETERSBURG*    FAIR      28  22  78 CALM      30.30R

$$

VAZ036>039-050-201100-
CENTRAL FOOTHILLS

CITY           SKY/WX    TMP DP  RH WIND       PRES   REMARKS
CHARLOTTESVILL FAIR      41  16  36 N8        30.28R
CULPEPER*      FAIR      39  19  44 NW5       30.29R
ORANGE*        FAIR      36  23  60 CALM      30.28R
GORDONSVILLE*  FAIR      34  26  74 N3        30.28R
WARRENTON*     FAIR      35  20  55 W5        30.28R WCI  31

$$

VAZ055>057-201100-
NORTH AND CENTRAL PIEDMONT

CITY           SKY/WX    TMP DP  RH WIND       PRES   REMARKS
FREDERICKSBRG* FAIR      40  25  56 NW5       30.28R
STAFFORD*      FAIR      36  24  60 CALM      30.33R

$$

NCZ024-NYZ072-PAZ021-071-VAZ022-071-201100-
OTHER REGIONAL OBSERVATIONS

CITY           SKY/WX    TMP DP  RH WIND       PRES   REMARKS
NEW YORK CITY  CLOUDY    37  22  54 W8        30.11R WCI  31
PHILADELPHIA   FAIR      37  21  52 NW10      30.18R WCI  30
PITTSBURGH     FAIR      28  21  75 W10       30.31R WCI  19
ROANOKE        FAIR      40  27  59 NW8       30.29R WCI  34
RICHMOND       FAIR      39  28  64 N10       30.26R WCI  32
RALEIGH        FAIR      36  30  79 CALM      30.27R

$$

ANZ530>537-201100-
MARINE OBSERVATIONS

STATION/POSITION TIME  TEMP    WIND        PRES
                       AIR SEA DIR/SP/G
                 (UTC) (F)     (DEG/KT/KT) (MB)
THOMAS PT LIGHT  1000   39 49  290/ 16/ 19 1024.8R
BALT KEY BRIDGE  0948   38     270/ 12/ 14 1023.8R
COVE POINT       0948   40     330/ 16/ 25 1024.6R
LEWISETTA        0948   42 53  340/ 17/ 26 1024.4R
SOLOMONS ISLAND  0948   41 51  330/ 10/ 18 1024.2R
PINEY POINT      0948          350/ 22/ 25   N/A

$$





USA.gov is the U.S. government's official web portal to all federal, state and local government web resources and services.